Stratford, CT

1:05 PM EDT on August 31, 2016 (GMT -0400)
Sikorsky Memorial

Weather History for KBDR - March, 2013

Change the Weather History Date:

Sunday, March 31, 2013

  Actual Average Record
Temperature  
Mean Temperature 43 °F 44 °F  
Max Temperature 53 °F 52 °F 74 °F (1998)
Min Temperature 33 °F 36 °F 21 °F (1964)
Degree Days  
Heating Degree Days 22 21  
Month to date heating degree days 795 797  
Since 1 July heating degree days 4418 4684  
Cooling Degree Days 0 0  
Month to date cooling degree days 0 0  
Year to date cooling degree days 0 0  
Moisture  
Dew Point 34 °F    
Average Humidity 74    
Maximum Humidity 100    
Minimum Humidity 48    
Precipitation  
Precipitation 0.15 in 0.14 in 2.67 in (1987)
Month to date precipitation 2.54 4.05  
Year to date precipitation 9.56 9.94  
Snow  
Snow 0.00 in 0.10 in 2.20 in (1970)
Month to date snowfall 13.0 5.1  
Since 1 July snowfall 64.3 26.7  
Snow Depth 0.00 in    
Sea Level Pressure  
Sea Level Pressure 29.96 in    
Wind  
Wind Speed 6 mph (East)    
Max Wind Speed 16 mph    
Max Gust Speed 22 mph    
Visibility 8 miles    
Events Rain    
T = Trace of Precipitation, MM = Missing Value Source: NWS Daily Summary

Daily Weather History Graph

Daily Weather History Graph

Search for Another Location

Airport or City:

Trip Planner

Search our weather history database for the weather conditions in past years. The results will help you decide how hot, cold, wet, or windy it might be!

Date:

Astronomy

Mar. 31, 2013 Rise Set
Actual Time 6:37 AM EDT 7:16 PM EDT
Civil Twilight 6:09 AM EDT 7:44 PM EDT
Nautical Twilight 5:36 AM EDT 8:17 PM EDT
Astronomical Twilight 5:02 AM EDT 8:51 PM EDT
Moon No Moon Rise 9:19 AM EDT
Length of Visible Light 13h 35m
Length of Day
12h 39m
Waning Gibbous, 78% of the Moon is Illuminated
Mar 31
Waning Gibbous
Apr 3
Last Quarter
Apr 10
New
Apr 18
First Quarter
Apr 25
Full

Hourly Weather History & Observations

Time (EDT) Temp. Windchill Dew Point Humidity Pressure Visibility Wind Dir Wind Speed Gust Speed Precip Events Conditions
12:52 AM 39.0 °F - 30.9 °F 73% 30.14 in 10.0 mi Calm Calm - N/A   Clear
1:52 AM 37.0 °F - 28.9 °F 73% 30.13 in 10.0 mi Calm Calm - N/A   Clear
2:52 AM 36.0 °F - 28.0 °F 73% 30.12 in 10.0 mi Calm Calm - N/A   Clear
3:52 AM 36.0 °F 33.3 °F 25.0 °F 64% 30.11 in 10.0 mi North 3.5 mph - N/A   Clear
4:52 AM 36.0 °F - 26.1 °F 67% 30.12 in 10.0 mi Calm Calm - N/A   Clear
5:52 AM 34.0 °F 29.8 °F 25.0 °F 70% 30.12 in 10.0 mi NE 4.6 mph - N/A   Clear
6:52 AM 34.0 °F - 25.0 °F 70% 30.12 in 10.0 mi Calm Calm - N/A   Clear
7:52 AM 37.0 °F - 27.0 °F 67% 30.11 in 10.0 mi Calm Calm - N/A   Clear
8:52 AM 41.0 °F 39.0 °F 28.0 °F 60% 30.11 in 10.0 mi NE 3.5 mph - N/A   Clear
9:52 AM 44.1 °F - 33.1 °F 65% 30.11 in 10.0 mi Calm Calm - N/A   Clear
10:52 AM 48.0 °F - 33.1 °F 56% 30.10 in 10.0 mi SSE 4.6 mph - N/A   Clear
11:52 AM 46.9 °F - 36.0 °F 66% 30.08 in 10.0 mi East 5.8 mph - N/A   Clear
12:52 PM 48.0 °F - 37.0 °F 66% 30.06 in 10.0 mi East 8.1 mph - N/A   Clear
1:52 PM 51.1 °F - 33.1 °F 50% 30.03 in 10.0 mi SSE 8.1 mph - N/A   Clear
2:52 PM 51.1 °F - 32.0 °F 48% 29.99 in 10.0 mi South 10.4 mph - N/A   Mostly Cloudy
3:52 PM 50.0 °F - 34.0 °F 54% 29.98 in 10.0 mi South 5.8 mph - N/A   Overcast
4:52 PM 51.1 °F - 35.1 °F 54% 29.92 in 10.0 mi SE 15.0 mph - N/A   Overcast
5:52 PM 48.9 °F - 37.0 °F 64% 29.93 in 10.0 mi South 12.7 mph - N/A   Overcast
6:52 PM 48.0 °F - 37.0 °F 66% 29.87 in 10.0 mi ESE 11.5 mph - N/A   Overcast
7:52 PM 46.0 °F 41.9 °F 37.9 °F 73% 29.83 in 10.0 mi ESE 8.1 mph - N/A   Overcast
8:52 PM 46.0 °F 39.9 °F 39.9 °F 79% 29.79 in 10.0 mi SE 13.8 mph 20.7 mph 0.01 in Rain Light Rain
9:48 PM 42.8 °F 37.5 °F 41.0 °F 93% 29.76 in 2.5 mi ENE 9.2 mph - 0.04 in Rain Light Rain
9:52 PM 43.0 °F 37.7 °F 41.0 °F 93% 29.75 in 2.5 mi ENE 9.2 mph - 0.05 in Rain Light Rain
10:00 PM 42.8 °F 37.5 °F 41.0 °F 93% 29.75 in 3.0 mi NE 9.2 mph - 0.01 in Rain Light Rain
10:22 PM 42.8 °F 36.6 °F 41.0 °F 93% 29.73 in 2.5 mi NE 11.5 mph - 0.02 in Rain Light Rain
10:52 PM 43.0 °F 36.0 °F 42.1 °F 97% 29.71 in 2.5 mi NE 13.8 mph - 0.05 in Rain Light Rain
11:05 PM 44.6 °F 39.2 °F 42.8 °F 93% 29.70 in 3.0 mi NE 10.4 mph - 0.01 in Rain Light Rain
11:52 PM 44.1 °F 39.0 °F 42.1 °F 93% 29.66 in 3.0 mi NE 9.2 mph - 0.03 in Rain Rain